Regional Weather Roundup
Issued by NWS Upton, NY

Home | Current Version | Previous Version | Text Only | Print | Product List | Glossary On
Versions: 1 2 3 4 5 6 7 8 9 10 11 12 13 14 15 16 17 18 19 20 21 22 23 24 25 26
000
ASUS41 KOKX 211605
RWROKX

REGIONAL WEATHER ROUNDUP
NATIONAL WEATHER SERVICE NEW YORK NY
1200 PM EDT MON APR 21 2014

NOTE: "FAIR" INDICATES FEW OR NO CLOUDS BELOW 12,000 FEET WITH NO
SIGNIFICANT WEATHER AND/OR OBSTRUCTIONS TO VISIBILITY.

NYZ071-072-176-178-NJZ106-104-211700-
NEW YORK CITY METRO AREA


CITY           SKY/WX    TMP DP  RH WIND       PRES   REMARKS
CENTRAL PARK   SUNNY     59  26  28 CALM      30.16F
LAGUARDIA APRT MOSUNNY   56  26  31 VRB3      30.14F
KENNEDY INTL   MOSUNNY   55  32  41 S7        30.16F
NEWARK/LIBERTY MOSUNNY   57  22  25 SE3       30.14F
TETERBORO      SUNNY     61  22  22 VRB5      30.13F
$$

NYZ177-179-078>081-211700-
LONG ISLAND NEW YORK

CITY           SKY/WX    TMP DP  RH WIND       PRES   REMARKS
FARMINGDALE    SUNNY     57  35  43 VRB3      30.14F
ISLIP          PTSUNNY   60  36  40 SE8       30.12F
SHIRLEY        SUNNY     58  38  47 S10       30.15F
WESTHAMPTON    SUNNY     56  38  50 SE5       30.16F
MONTAUK POINT    N/A     48  39  71 N3        30.16F
$$

NYZ052-065-067-211700-
HUDSON VALLEY

CITY           SKY/WX    TMP DP  RH WIND       PRES   REMARKS
WHITE PLAINS   SUNNY     56  31  38 VRB5      30.12F
NEWBURGH       SUNNY     59  18  20 W7        30.13F
MONTGOMERY     SUNNY     60  19  20 VRB3      30.10F
POUGHKEEPSIE   SUNNY     60  16  18 S8        30.11F
ALBANY         PTSUNNY   59  25  27 VRB6      30.08F
$$

NJZ001-105-106-008-010-013-015-019>022-104-211700-
NEW JERSEY

CITY           SKY/WX    TMP DP  RH WIND       PRES   REMARKS
NEWARK/LIBERTY MOSUNNY   57  22  25 SE3       30.14F
TETERBORO      SUNNY     61  22  22 VRB5      30.13F
CALDWELL       SUNNY     59  19  21 CALM      30.13F
MORRISTOWN     MOSUNNY   59  19  21 SW6       30.14F
SOMERVILLE     SUNNY     60  19  20 VRB3      30.12F
LINDEN         FAIR      60  24  24 S3        30.16F
SUSSEX         SUNNY     62  14  15 VRB5      30.11F
ANDOVER          N/A     61  16  17 VRB5      30.12F
TRENTON        SUNNY     58  22  24 VRB3      30.13F
MILLVILLE      SUNNY     61  42  49 CALM      30.13F
ATLANTIC CITY  SUNNY     60  42  51 E10       30.14F
WRIGHTSTOWN    SUNNY     60  38  43 VRB3      30.12F
TOMS RIVER     SUNNY     57  37  47 E5        30.15F
BELMAR         SUNNY     55  36  47 E8        30.14F
$$

PAZ047>061-062-071-211700-
EASTERN PENNSYLVANIA

CITY           SKY/WX    TMP DP  RH WIND       PRES   REMARKS
PHILADELPHIA   MOSUNNY   62  31  31 CALM      30.15F
ALLENTOWN      SUNNY     58  17  20 CALM      30.13F
SCRANTON       SUNNY     60  27  28 W10       30.09F
$$

CTZ002-004>006-009-010-012-RIZ004-006-007-MAZ004-011-015-211700-
SOUTHERN NEW ENGLAND
 IN CT

CITY           SKY/WX    TMP DP  RH WIND       PRES   REMARKS
BRADLEY INTL   PTSUNNY   59  21  23 S8        30.11F
HARTFORD       SUNNY     56  26  31 VRB5      30.12F
DANBURY        SUNNY     59  17  19 W7        30.13F
WTRBRY/OXFORD  MOSUNNY   57  21  24 VRB6      30.14F
BRIDGEPORT     SUNNY     50  36  58 SE6       30.16F
MERIDEN        SUNNY     58  21  24 SE8       30.12F
NEW HAVEN      MOSUNNY   49  36  61 S8        30.15F
CHESTER        FAIR      57  28  33 SW3       30.13F
GROTON         SUNNY     48  40  73 S7        30.14F
WILLIMANTIC    SUNNY     59  17  19 VRB6      30.12F

 IN RI

CITY           SKY/WX    TMP DP  RH WIND       PRES   REMARKS
PROVIDENCE     PTSUNNY   55  38  52 S10       30.13F
BLOCK ISLAND   SUNNY     48  41  76 E3        30.15F
WESTERLY       SUNNY     52  39  61 S9        30.15F

 IN MA

CITY           SKY/WX    TMP DP  RH WIND       PRES   REMARKS
BOSTON         PTSUNNY   59  23  25 S8        30.11F
WORCESTER      MOSUNNY   58  14  17 VRB6      30.10F
WESTFIELD      MOSUNNY   61  24  24 MISG      30.10F
PROVINCETOWN   SUNNY     54  41  62 MISG      30.15F
NANTUCKET      SUNNY     51  41  68 S8        30.14F
$$

ANZ330-335-338-340-345-350-353-355-211700-
COASTAL MARINE OBSERVATIONS


STATION/POSITION TIME  SKY/WX   TEMP    WIND        PRES    VSBY  WAVE
                                AIR SEA DIR/SP/G                  HT/PER
                 (UTC)          (F)     (DEG/KT/KT) (MB)    (MI)  (FT/S)
NY HARB ENTRANCE 1600            44 45  VRB  4/  4  1021.4
4S FIRE IS       1500               46                N/A           4/ 8
23SW MTP         1600            42 43   30/  8/ 10 1020.9          4/ 9
HUDSON CANYON    1500            45 44   30/  8/ 10 1020.9          5/ 8
EXECUTION ROCKS  1600            50 47   70/  4/  4   N/A
WESTERN LI SOUND 1600            45      70/  4/  4   N/A           0
CENTRAL LI SOUND 1500            42 44  150/  4/  4   N/A           0
EASTERN LI SOUND NOT AVBL
ROBBINS REEF     1600            48     170/  7/  8   N/A
$$


>>>>>>>>>>>>>>>>>>>>>>>>>>>> KEY <<<<<<<<<<<<<<<<<<<<<<<<<<<
>                                                          <
>     SKY/WX - SKY CONDITION/PRESENT WEATHER               <
>     TMP    - TEMPERATURE IN FAHRENHEIT                   <
>     DP     - DEWPOINT IN FAHRENHEIT                      <
>     RH     - RELATIVE HUMIDITY IN PERCENT                <
>     WIND   - DIRECTION AND SPEED IN MPH                  <
>     PRES   - MEAN SEA LEVEL PRESSURE IN INCHES OF HG     <
>     WCI    - WIND CHILL INDEX                            <
>     VSB    - VISIBILITY IN MILES                         <
>     HX     - HEAT INDEX                                  <
>     TC     - TEMPERATURE IN CELSIUS                      <
>     VRB    - VARIABLE WIND DIRECTION                     <
>                                                          <
>>>>>>>>>>>>>>>>>>>>>>>>>>>> KEY <<<<<<<<<<<<<<<<<<<<<<<<<<<





USA.gov is the U.S. government's official web portal to all federal, state and local government web resources and services.